{"data":{"norad_id":67932,"intl_designator":"2026-037A","name":"STARLINK-36301","alt_names":[],"object_type":"PAYLOAD","status":"ACTIVE","operator":null,"country":"US","launch_date":"2026-02-24","launch_site_code":"AFETR","launch_vehicle":null,"mission":null,"orbit_class":"UNKNOWN","rcs_meters":null,"size_class":null,"mass_kg":null,"dimensions":null,"purposes":["comms"],"wikipedia_slug":null,"has_3d_model":false,"image_url":null,"decayed_at":null,"tle_current":{"epoch":"2026-05-24T23:33:31.561056Z","epoch_age_seconds":73319,"freshness":"FRESH","line1":"1 67932U 26037A   26144.98161529  .00019819  00000+0  72777-3 0  9993","line2":"2 67932  43.0003 120.2906 0001353 272.6869  87.3827 15.27580413 15008","mean_motion":15.27580413,"eccentricity":0.0001353,"inclination_deg":43.0003,"raan_deg":120.2906,"arg_perigee_deg":272.6869,"mean_anomaly_deg":87.3827,"bstar":0.00072777,"rev_number":1500,"period_min":94.266723227486,"perigee_km":482.11954105788,"apogee_km":483.97617768083,"semimajor_km":6861.1848593694,"source":"CELESTRAK","updated_at":"2026-05-25T13:38:21.765955Z"}}}